Location: Camp Crooked Creek
(37.9149°N, 85.6607°W)
Time: 13:25:45
(UTC-04:00)

Daily predictions for brighter satellites

Satellite Brightness Start Highest point End
(mag) Time Altitude Azimuth Time Altitude Azimuth Time Altitude Azimuth
CZ-4C R/B 2.7 19:16:59 10° S 19:21:35 36° ESE 19:26:43 10° NE
Cosmos 1484 Rocket 2.8 19:18:21 10° S 19:22:04 81° W 19:25:47 10° NNW
Cosmos 44 Rocket 3.5 19:19:13 10° S 19:23:43 47° ESE 19:28:13 10° NE
SL-16 R/B 3.7 19:22:08 10° NW 19:27:26 42° WSW 19:32:44 10° S
Cosmos 1703 3.2 19:27:29 10° N 19:31:25 73° E 19:35:17 10° SSE
Cosmos 2366 rocket 4.3 19:28:57 10° SSW 19:35:09 72° W 19:41:20 10° N
Cosmos 1908 3.3 19:31:38 10° S 19:35:27 53° E 19:39:16 10° NNE
RESURS DK-1 2.4 19:33:18 10° NNW 19:37:27 88° WSW 19:41:34 10° SSE
COSMO-SKYMED 1 2.6 19:34:03 10° NNE 19:38:21 62° E 19:42:38 10° S
Cosmos 2237 4.3 19:33:04 10° NNW 19:38:44 60° ENE 19:44:22 10° SE
Cosmos 1626 2.7 19:35:30 10° NNW 19:39:11 62° W 19:42:52 10° S
Ariane Rocket 4.4 19:36:02 10° S 19:40:51 44° W 19:45:44 10° NNW
Atlas Centaur 2 3.3 19:39:33 10° WSW 19:43:06 26° S 19:47:21 10° SE
Cosmos 2237 Rocket 3.8 19:39:54 10° NNE 19:43:14 16° NE 19:45:24 13° ENE
H-2A R/B 4.3 19:43:54 13° E 19:45:35 17° ENE 19:48:05 10° NNE
Gbstr 26 Del rocket 4.2 19:41:21 10° NW 19:46:00 38° NNE 19:50:40 14° E
Cosmos 2227 Rocket 3.5 19:45:40 10° SE 19:49:28 19° E 19:52:07 14° ENE
Cosmos 2151 3.4 19:45:43 10° NNW 19:49:57 68° W 19:54:10 10° S
Cosmos 1805 Rocket 4.2 19:46:08 10° NNE 19:50:08 33° ENE 19:54:08 10° SE
Cosmos 2058 3.7 19:52:45 10° NNW 19:56:50 56° W 20:00:52 10° S
YAOGAN 1 3.3 19:54:09 10° S 19:58:23 56° W 20:02:39 10° NNW
Cosmos 1666 Rocket 4.4 19:55:39 10° NNE 19:59:20 26° ENE 20:02:43 11° SE
ALOS 2.3 19:57:06 10° SSE 20:01:40 58° ENE 20:06:16 10° N
Cosmos 1300 3.4 19:58:54 10° SSE 20:02:18 32° E 20:05:44 10° NNE
Cosmos 1269 Rocket 3.9 19:58:04 10° S 20:03:19 77° ESE 20:08:37 10° NNE
Cosmos 2360 Rocket 3.1 19:59:12 10° NNW 20:04:42 53° WSW 20:10:10 10° S
Cosmos 1633 Rocket 4.0 20:01:13 10° NNE 20:04:56 26° ENE 20:06:13 22° ESE
DMSP B5D1-3 4.4 20:01:14 10° NNE 20:06:23 74° ESE 20:11:31 10° S
Cosmos 1821 Rocket 3.9 20:05:02 10° S 20:11:08 71° E 20:17:22 10° NNE
Cosmos 1934 Rocket 4.1 20:05:05 10° SSE 20:11:12 53° E 20:17:22 10° NNE
Cosmos 1000 Rocket 4.4 20:05:42 10° N 20:11:55 74° E 20:18:03 10° SSE
SPOT 3 Rocket 3.7 20:07:06 10° S 20:12:17 78° WSW 20:17:31 10° NNW
Aureole 2 Rocket 3.0 20:10:40 10° N 20:14:31 47° ENE 20:16:42 23° SE
Abrixas 3.2 20:13:14 10° W 20:15:09 28° NNW 20:15:20 27° NNW
COSMOS 2428 2.6 20:09:43 10° NNW 20:15:26 81° ENE 20:21:07 10° SSE
Cosmos 2239 Rocket 4.4 20:11:00 10° S 20:17:07 80° E 20:23:17 10° N
Cosmos 2333 Rocket 2.5 20:12:54 10° N 20:18:24 44° ENE 20:21:36 23° ESE
Cosmos 2219 3.3 20:12:45 10° SSW 20:18:31 82° WNW 20:24:17 10° NNE
Hubble Space Telescope 2.8 20:16:30 10° SSW 20:18:48 15° SSE 20:19:41 14° SSE
CZ-4 R/B 4.3 20:15:48 10° SW 20:19:01 21° W 20:22:14 10° NW
FENGYUN 3A 3.6 20:14:00 10° SSE 20:19:23 84° E 20:24:50 10° NNW
BREEZE-M DEB (TANK) 4.3 20:04:25 10° WNW 20:23:25 50° N 20:26:19 28° ENE
Cosmos 2221 3.6 20:20:07 10° SSW 20:24:17 47° W 20:28:30 10° N
Iridium 4 Rocket 3.9 20:19:01 10° S 20:24:34 78° W 20:30:28 10° N
BREEZE-M R/B 2.2 20:22:30 10° SW 20:25:01 58° SE 20:25:04 57° SE
Delta 2 Rocket 3.5 20:21:52 10° W 20:25:35 50° S 20:26:27 39° SE
Cosmos 2297 Rocket 2.8 20:21:41 10° SSE 20:26:39 33° ESE 20:27:02 32° E
Cosmos 494 Rocket 4.1 20:22:44 10° S 20:27:38 49° ESE 20:30:46 21° NE
Cosmos 2098 Rocket 3.6 20:23:14 10° SSW 20:27:41 74° W 20:33:27 10° N
Cosmos 2084 3.9 20:28:38 10° NNW 20:31:39 36° NNE 20:31:39 36° NNE
Meteor 2-10 3.8 20:30:00 10° S 20:35:00 79° E 20:40:08 10° NNE
Cosmos 1110 Rocket 4.1 20:30:00 10° N 20:35:11 51° ENE 20:36:36 40° ESE
Cosmos 2082 4.1 20:30:48 10° S 20:36:03 39° ESE 20:36:17 39° E
Meteor 2-2 Rocket 4.2 20:31:07 10° S 20:36:42 59° E 20:42:15 10° NNE
BREEZE-M DEB (TANK) 3.9 20:30:42 10° WNW 20:39:30 38° N 20:41:01 29° NNE
Cosmos 1726 3.2 20:36:27 10° SSW 20:40:00 44° W 20:43:33 10° N
FengYun 1-2 T 4.1 20:36:49 10° SSE 20:42:18 78° ENE 20:47:48 10° N
Cosmos 2123 Rocket 3.9 20:37:22 10° N 20:43:38 74° E 20:49:54 10° SSE
Cosmos 1605 Rocket 3.8 20:39:32 10° S 20:45:35 68° E 20:51:37 10° NNE
Cosmos 2219 Rocket 2.2 20:46:28 10° NNW 20:52:05 82° WSW 20:55:32 24° SSE
Cosmos 2251 Rocket 3.4 20:51:26 10° S 20:56:38 67° ESE 20:56:38 67° ESE
DELTA 2 R/B (1) 4.5 20:55:08 10° W 21:00:20 41° SSW 21:01:54 33° S
SJ-6B 4.4 21:06:28 26° NNW 21:06:28 26° NNW 21:08:14 10° NNW
Resurs 01 Rocket 4.0 21:11:19 14° N 21:11:19 14° N 21:11:55 10° N
MOS 1-B Rocket 3.7 21:09:36 73° E 21:09:44 73° ENE 21:15:48 10° N
NOSS 0 Rocket 3.9 21:03:37 10° NNW 21:09:48 82° WSW 21:11:40 47° SSE
CZ-4C R/B 3.7 21:05:25 10° WSW 21:10:05 31° NW 21:15:06 11° NNE
Sich 1 4.4 21:09:54 10° NNW 21:13:59 38° W 21:18:04 10° SSW
H-2A R/B 4.5 21:19:07 31° WSW 21:19:34 32° W 21:23:05 10° NNW
Cosmos 1447 Rocket 4.4 21:15:26 10° N 21:21:17 74° NNE 21:21:17 74° NNE
BREEZE M DEB (TANK) 4.2 21:10:38 10° WNW 21:23:10 56° NNE 21:23:10 56° NNE
Cosmos 2237 Rocket 2.4 21:22:14 10° NNW 21:27:16 68° NW 21:27:16 68° NW
Atlas Centaur 2 4.3 21:28:58 10° SW 21:31:24 14° SSW 21:31:24 14° SSW
USA 267 3.1 21:32:24 82° S 21:32:24 82° S 21:38:39 10° SW
Cosmos 2227 Rocket 2.8 21:27:29 10° SW 21:33:00 54° WNW 21:34:03 47° NNW
Gbstr 26 Del rocket 4.3 21:27:52 10° WNW 21:33:13 54° SW 21:33:16 54° SW
SL-16 R/B 3.9 21:34:30 10° NNW 21:36:39 23° N 21:36:39 23° N
CZ-3A R/B 4.1 21:42:34 10° NW 21:56:32 55° NNE 21:56:32 55° NNE
Cosmos 2333 Rocket 4.1 21:57:48 10° NW 22:02:19 24° WSW 22:03:41 22° WSW
Centaur D AC-28 4.2 22:00:32 10° SW 22:42:12 10° E 22:42:19 10° E
Centaur D AC-28 4.2 22:00:32 10° SW 22:42:11 10° E 22:42:19 10° E
Centaur D AC-28 4.2 22:00:33 10° SW 22:42:11 10° E 22:42:19 10° E
Centaur D AC-28 4.2 22:00:33 10° SW 22:42:12 10° E 22:42:19 10° E
Centaur D AC-28 4.2 22:00:33 10° SW 22:42:09 10° E 22:42:19 10° E
Centaur D AC-28 4.2 22:00:33 10° SW 22:42:12 10° E 22:42:20 10° E
Centaur D AC-28 4.2 22:00:33 10° SW 22:42:13 10° E 22:42:19 10° E
Cosmos 2297 Rocket 4.0 22:05:35 10° WSW 22:08:59 27° W 22:08:59 27° W
